User: anonymous   Login
Location: Girdwood
(60.9430°N, 149.1660°W)
Time: 17:14:23
(UTC-08:00)
Language:

Iridium 86 - Orbit

View from above orbital plane
View from above orbital plane
View from above satellite
View from above satellite

Ground track
Ground track

The orbit data is extracted from the following two-line orbital elements,

1 25528U 98066B   16239.27142133  .00000080  00000-0  21375-4 0  9995
2 25528  86.3950 113.1370 0002004  85.8654 274.2771 14.34216004937096
Epoch (UTC): 26 August 2016 06:30:50
Eccentricity: 0.0002004
inclination: 86.3950°
perigee height: 776 km
apogee height: 779 km
right ascension of ascending node: 113.1370°
argument of perigee: 85.8654°
revolutions per day: 14.34216004
mean anomaly at epoch: 274.2771°
orbit number at epoch: 93709

The dashed part of the orbit path shows where the satellite is in the earth's shadow,  

DLR